Tracking 32579 objects as of 17-Dec-2025
HD Live streaming from Space Station
objects crossing your sky now

ONEWEB-0660

Track ONEWEB-0660 now!
10-day predictions
ONEWEB-0660 is classified as:


NORAD ID: 55820
Int'l Code: 2023-029AA
Perigee: 1,211.3 km
Apogee: 1,214.5 km
Inclination: 87.9 °
Period: 109.5 minutes
Semi major axis: 7583 km
RCS: Unknown
Launch date: March 9, 2023
Source: United Kingdom (UK)
Launch site: AIR FORCE EASTERN TEST RANGE (AFETR)
Your satellite tracking list
Your tracking list is empty




NASA's NSSDC Master Catalog

Two Line Element Set (TLE):
1 55820U 23029AA  25350.21561461 -.00000043  00000-0 -15144-3 0  9994
2 55820  87.8996 326.1456 0002132  82.3382 277.7990 13.14504671135361
Source of the keplerian elements: AFSPC